sat.trackr.live / text

‹ back to catalog

STARLINK-36817

NORAD 67882 · 2026-035D

PAYLOAD ACTIVE UNKNOWN

§ Identity

Operator
Country
US
Launch date
2026-02-21
Launch site
AFWTR
Launch vehicle
Mass (kg)
RCS (m²)

Purposes: comms

External: N2YO · Heavens-Above · Gunter

§ Orbital elements

Epoch: 2026-09-19T06:30:03.351168Z

Period
93.91 min
Inclination
97.2845°
Eccentricity
0.0000459
Mean motion
15.33456201 rev/d
Perigee alt
465.2 km
Apogee alt
465.8 km
Semi-major
6,843.6 km
B*
6.1235e-4
RAAN
194.1235°
Arg perigee
87.9712°
Mean anomaly
272.1584°
Rev number
3,365

§ Raw data

STARLINK-368171 67882U 26035D   26262.27087212  .00019752  00000+0  61235-3 0  99972 67882  97.2845 194.1235 0000459  87.9712 272.1584 15.33456201 33651

JSON: /api/v1/satellites/67882 · /tle

For live sub-satellite position, see the globe view (requires WebGL).

§ Visibility from observer

Set your observer location to see the next 7 days of passes ≥ 10°. The values pass through the URL so the page stays shareable.

No JS? Fill the form by hand. The geolocation button needs JavaScript.